Private Wetterstation Wechselburg
Wetterdaten: Montag, 26.10.2009
Datum Zeit Temp. +2m Bodentemp. Temp.+5cm Temp. Wind Windchill X Diff Temp. Feuchte +2m Feuchte +5cm Sonnenschein Luftdruck Regen Wind Richtung Richtung Sonnenschein UV Taupunkt Windchill Windben
26.10.2009 00:00 8,0 C 10,7 C 7,5 C 7,6 C 6,8 C 0,0 C 92 % 96 % 0 % 1015,6 hPa 0,0 l/m 0,0 km/h (0 Bft) O 90 0 min 0,0 UV-I 6,8 C 6,8 C 0,0 km/h (0 Bft)
26.10.2009 00:06 8,1 C 10,6 C 7,4 C 7,7 C 6,8 C 0,0 C 92 % 96 % 0 % 1015,6 hPa 0,0 l/m 0,0 km/h (0 Bft) NO 45 0 min 0,0 UV-I 6,9 C 6,8 C 0,0 km/h (0 Bft)
26.10.2009 00:07 8,1 C 10,6 C 7,4 C 7,7 C 6,8 C 0,0 C 92 % 96 % 0 % 1015,6 hPa 0,0 l/m 0,0 km/h (0 Bft) NO 45 0 min 0,0 UV-I 6,9 C 6,8 C 0,0 km/h (0 Bft)
26.10.2009 00:10 8,0 C 10,6 C 7,3 C 7,6 C 6,8 C 0,0 C 93 % 96 % 0 % 1015,6 hPa 0,0 l/m 0,0 km/h (0 Bft) N-NO 22 0 min 0,0 UV-I 6,9 C 6,8 C 0,0 km/h (0 Bft)
26.10.2009 00:15 8,0 C 10,6 C 7,3 C 7,6 C 6,8 C 0,0 C 93 % 96 % 0 % 1015,6 hPa 0,0 l/m 0,0 km/h (0 Bft) SW 225 0 min 0,0 UV-I 6,9 C 6,8 C 0,0 km/h (0 Bft)
26.10.2009 00:20 8,1 C 10,6 C 7,3 C 7,7 C 6,8 C 0,0 C 93 % 97 % 0 % 1015,8 hPa 0,0 l/m 0,0 km/h (0 Bft) S-SO 157 0 min 0,0 UV-I 7,0 C 6,8 C 0,0 km/h (0 Bft)
26.10.2009 00:25 8,1 C 10,6 C 7,4 C 7,7 C 6,8 C 0,0 C 93 % 97 % 0 % 1015,8 hPa 0,0 l/m 0,0 km/h (0 Bft) SO 135 0 min 0,0 UV-I 7,0 C 6,8 C 0,0 km/h (0 Bft)
26.10.2009 00:30 8,1 C 10,6 C 7,4 C 7,7 C 6,8 C 0,0 C 93 % 97 % 0 % 1015,8 hPa 0,0 l/m 0,0 km/h (0 Bft) SW 225 0 min 0,0 UV-I 7,0 C 6,8 C 0,0 km/h (0 Bft)
26.10.2009 00:35 8,1 C 10,6 C 7,5 C 7,6 C 6,7 C 0,0 C 93 % 97 % 0 % 1015,8 hPa 0,0 l/m 0,0 km/h (0 Bft) S-SO 157 0 min 0,0 UV-I 7,0 C 6,7 C 0,0 km/h (0 Bft)
26.10.2009 00:40 8,1 C 10,6 C 7,4 C 7,6 C 6,6 C 0,0 C 93 % 97 % 0 % 1016,4 hPa 0,0 l/m 0,0 km/h (0 Bft) SO 135 0 min 0,0 UV-I 7,0 C 6,6 C 0,0 km/h (0 Bft)
26.10.2009 00:45 8,1 C 10,6 C 7,5 C 7,6 C 6,6 C 0,0 C 93 % 97 % 0 % 1016,4 hPa 0,0 l/m 0,0 km/h (0 Bft) SO 135 0 min 0,0 UV-I 7,0 C 6,6 C 0,0 km/h (0 Bft)
26.10.2009 00:50 8,1 C 10,6 C 7,3 C 7,6 C 6,5 C 0,0 C 93 % 96 % 0 % 1016,4 hPa 0,0 l/m 0,0 km/h (0 Bft) O-NO 67 0 min 0,0 UV-I 7,0 C 6,5 C 0,0 km/h (0 Bft)
26.10.2009 00:55 8,0 C 10,6 C 7,2 C 7,5 C 6,5 C 0,0 C 93 % 96 % 0 % 1016,4 hPa 0,0 l/m 0,0 km/h (0 Bft) O-NO 67 0 min 0,0 UV-I 6,9 C 6,5 C 0,0 km/h (0 Bft)
26.10.2009 01:00 7,9 C 10,6 C 7,2 C 7,4 C 6,4 C 0,0 C 92 % 96 % 0 % 1015,6 hPa 0,0 l/m 0,0 km/h (0 Bft) O-NO 67 0 min 0,0 UV-I 6,7 C 6,4 C 0,0 km/h (0 Bft)
26.10.2009 01:10 7,9 C 10,6 C 7,1 C 7,4 C 6,3 C 0,0 C 93 % 96 % 0 % 1015,6 hPa 0,0 l/m 0,0 km/h (0 Bft) O-NO 67 0 min 0,0 UV-I 6,8 C 6,3 C 0,0 km/h (0 Bft)
26.10.2009 01:15 7,9 C 10,6 C 7,1 C 7,4 C 6,3 C 0,0 C 93 % 96 % 0 % 1015,6 hPa 0,0 l/m 0,0 km/h (0 Bft) O-NO 67 0 min 0,0 UV-I 6,8 C 6,3 C 0,0 km/h (0 Bft)
26.10.2009 01:20 7,8 C 10,5 C 7,1 C 7,3 C 6,3 C 0,0 C 92 % 96 % 0 % 1016,4 hPa 0,0 l/m 0,0 km/h (0 Bft) O-NO 67 0 min 0,0 UV-I 6,6 C 6,3 C 0,0 km/h (0 Bft)
26.10.2009 01:25 7,7 C 10,5 C 7,0 C 7,3 C 6,4 C 0,0 C 92 % 96 % 0 % 1016,4 hPa 0,0 l/m 0,0 km/h (0 Bft) O-NO 67 0 min 0,0 UV-I 6,5 C 6,4 C 0,0 km/h (0 Bft)
26.10.2009 01:30 7,7 C 10,6 C 6,9 C 7,3 C 6,5 C 0,0 C 93 % 96 % 0 % 1016,4 hPa 0,0 l/m 0,0 km/h (0 Bft) O-NO 67 0 min 0,0 UV-I 6,6 C 6,5 C 0,0 km/h (0 Bft)
26.10.2009 01:35 7,7 C 10,5 C 6,9 C 7,3 C 6,5 C 0,0 C 93 % 96 % 0 % 1016,4 hPa 0,0 l/m 0,0 km/h (0 Bft) O-NO 67 0 min 0,0 UV-I 6,6 C 6,5 C 0,0 km/h (0 Bft)
26.10.2009 01:40 7,7 C 10,5 C 7,0 C 7,3 C 6,4 C 0,0 C 93 % 96 % 0 % 1016,2 hPa 0,0 l/m 0,0 km/h (0 Bft) O-NO 67 0 min 0,0 UV-I 6,6 C 6,4 C 0,0 km/h (0 Bft)
26.10.2009 01:45 7,9 C 10,5 C 7,1 C 7,4 C 6,4 C 0,0 C 93 % 96 % 0 % 1016,2 hPa 0,0 l/m 0,0 km/h (0 Bft) O-NO 67 0 min 0,0 UV-I 6,8 C 6,4 C 0,0 km/h (0 Bft)
26.10.2009 01:50 7,8 C 10,5 C 7,0 C 7,3 C 6,3 C 0,0 C 93 % 96 % 0 % 1016,2 hPa 0,0 l/m 0,0 km/h (0 Bft) O-NO 67 0 min 0,0 UV-I 6,7 C 6,3 C 0,0 km/h (0 Bft)
26.10.2009 01:55 7,7 C 10,5 C 7,1 C 7,2 C 6,3 C 0,0 C 93 % 96 % 0 % 1016,2 hPa 0,0 l/m 0,0 km/h (0 Bft) W-SW 247 0 min 0,0 UV-I 6,6 C 6,3 C 0,0 km/h (0 Bft)
26.10.2009 02:00 7,7 C 10,5 C 7,1 C 7,2 C 6,3 C 0,0 C 93 % 96 % 0 % 1015,4 hPa 0,0 l/m 0,0 km/h (0 Bft) N-NO 22 0 min 0,0 UV-I 6,6 C 6,3 C 0,0 km/h (0 Bft)
26.10.2009 02:10 7,6 C 10,5 C 6,9 C 7,2 C 6,3 C 0,0 C 93 % 96 % 0 % 1015,4 hPa 0,0 l/m 0,0 km/h (0 Bft) O 90 0 min 0,0 UV-I 6,5 C 6,3 C 0,0 km/h (0 Bft)
26.10.2009 02:15 7,7 C 10,5 C 6,9 C 7,2 C 6,3 C 0,0 C 93 % 96 % 0 % 1015,4 hPa 0,0 l/m 0,0 km/h (0 Bft) O-NO 67 0 min 0,0 UV-I 6,6 C 6,3 C 0,0 km/h (0 Bft)
26.10.2009 02:20 7,6 C 10,5 C 6,7 C 7,2 C 6,3 C 0,0 C 93 % 96 % 0 % 1015,6 hPa 0,0 l/m 0,0 km/h (0 Bft) O-NO 67 0 min 0,0 UV-I 6,5 C 6,3 C 0,0 km/h (0 Bft)
26.10.2009 02:25 7,5 C 10,5 C 6,7 C 7,1 C 6,2 C 0,0 C 93 % 96 % 0 % 1015,6 hPa 0,0 l/m 0,0 km/h (0 Bft) O-NO 67 0 min 0,0 UV-I 6,4 C 6,2 C 0,0 km/h (0 Bft)
26.10.2009 02:30 7,5 C 10,5 C 6,7 C 7,0 C 6,1 C 0,0 C 93 % 96 % 0 % 1015,6 hPa 0,0 l/m 0,0 km/h (0 Bft) SO 135 0 min 0,0 UV-I 6,4 C 6,1 C 0,0 km/h (0 Bft)
26.10.2009 02:35 7,5 C 10,5 C 6,7 C 7,0 C 6,1 C 0,0 C 93 % 96 % 0 % 1015,6 hPa 0,0 l/m 0,0 km/h (0 Bft) SO 135 0 min 0,0 UV-I 6,4 C 6,1 C 0,0 km/h (0 Bft)
26.10.2009 02:40 7,4 C 10,5 C 6,7 C 7,0 C 6,1 C 0,0 C 93 % 96 % 0 % 1015,2 hPa 0,0 l/m 0,0 km/h (0 Bft) SO 135 0 min 0,0 UV-I 6,3 C 6,1 C 0,0 km/h (0 Bft)
26.10.2009 02:45 7,4 C 10,4 C 6,6 C 6,9 C 6,0 C 0,0 C 93 % 96 % 0 % 1015,2 hPa 0,0 l/m 0,0 km/h (0 Bft) W-SW 247 0 min 0,0 UV-I 6,3 C 6,0 C 0,0 km/h (0 Bft)
26.10.2009 02:50 7,5 C 10,4 C 6,7 C 7,0 C 6,0 C 0,0 C 93 % 96 % 0 % 1015,2 hPa 0,0 l/m 0,0 km/h (0 Bft) O 90 0 min 0,0 UV-I 6,4 C 6,0 C 0,0 km/h (0 Bft)
26.10.2009 02:55 7,5 C 10,4 C 6,8 C 7,1 C 6,3 C 0,0 C 93 % 96 % 0 % 1015,2 hPa 0,0 l/m 0,0 km/h (0 Bft) W 270 0 min 0,0 UV-I 6,4 C 6,3 C 0,0 km/h (0 Bft)
26.10.2009 03:00 7,5 C 10,4 C 6,9 C 7,2 C 6,5 C 0,0 C 93 % 96 % 0 % 1015,2 hPa 0,0 l/m 0,0 km/h (0 Bft) O-NO 67 0 min 0,0 UV-I 6,4 C 6,5 C 0,0 km/h (0 Bft)
26.10.2009 03:10 7,6 C 10,5 C 7,1 C 7,4 C 6,9 C 0,0 C 93 % 96 % 0 % 1015,2 hPa 0,0 l/m 0,0 km/h (0 Bft) O-NO 67 0 min 0,0 UV-I 6,5 C 6,9 C 0,0 km/h (0 Bft)
26.10.2009 03:15 7,6 C 10,5 C 7,0 C 7,4 C 7,0 C 0,0 C 93 % 96 % 0 % 1015,2 hPa 0,0 l/m 0,0 km/h (0 Bft) N-NO 22 0 min 0,0 UV-I 6,5 C 7,0 C 0,0 km/h (0 Bft)
26.10.2009 03:20 7,6 C 10,5 C 7,1 C 7,4 C 7,0 C 0,0 C 93 % 96 % 0 % 1015,2 hPa 0,0 l/m 0,0 km/h (0 Bft) O-NO 67 0 min 0,0 UV-I 6,5 C 7,0 C 0,0 km/h (0 Bft)
26.10.2009 03:25 7,7 C 10,5 C 7,2 C 7,5 C 7,1 C 0,0 C 93 % 96 % 0 % 1015,2 hPa 0,0 l/m 0,0 km/h (0 Bft) N-NO 22 0 min 0,0 UV-I 6,6 C 7,1 C 0,0 km/h (0 Bft)
26.10.2009 03:30 7,7 C 10,5 C 7,2 C 7,6 C 7,3 C 0,0 C 93 % 97 % 0 % 1015,2 hPa 0,0 l/m 0,0 km/h (0 Bft) W-SW 247 0 min 0,0 UV-I 6,6 C 7,3 C 0,0 km/h (0 Bft)
26.10.2009 03:35 7,7 C 10,4 C 7,3 C 7,6 C 7,3 C 0,0 C 93 % 97 % 0 % 1015,2 hPa 0,0 l/m 0,0 km/h (0 Bft) O-NO 67 0 min 0,0 UV-I 6,6 C 7,3 C 0,0 km/h (0 Bft)
26.10.2009 03:40 7,9 C 10,5 C 7,4 C 7,8 C 7,5 C 0,0 C 93 % 97 % 0 % 1015,2 hPa 0,0 l/m 0,0 km/h (0 Bft) O-NO 67 0 min 0,0 UV-I 6,8 C 7,5 C 0,0 km/h (0 Bft)
26.10.2009 03:45 7,8 C 10,5 C 7,5 C 7,7 C 7,5 C 0,0 C 93 % 97 % 0 % 1015,2 hPa 0,0 l/m 0,0 km/h (0 Bft) O-NO 67 0 min 0,0 UV-I 6,7 C 7,5 C 0,0 km/h (0 Bft)
26.10.2009 03:50 7,9 C 10,4 C 7,4 C 7,8 C 7,6 C 0,0 C 93 % 97 % 0 % 1015,2 hPa 0,0 l/m 0,0 km/h (0 Bft) O-SO 112 0 min 0,0 UV-I 6,8 C 7,6 C 0,0 km/h (0 Bft)
26.10.2009 03:55 7,9 C 10,5 C 7,5 C 7,8 C 7,6 C 0,0 C 93 % 97 % 0 % 1015,2 hPa 0,0 l/m 0,3 km/h (0 Bft) SW 225 0 min 0,0 UV-I 6,8 C 7,6 C 3,7 km/h (1 Bft)
26.10.2009 04:00 8,0 C 10,4 C 7,6 C 7,9 C 7,7 C 0,0 C 93 % 97 % 0 % 1015,4 hPa 0,0 l/m 0,5 km/h (0 Bft) O-NO 67 0 min 0,0 UV-I 6,9 C 7,7 C 5,0 km/h (1 Bft)
26.10.2009 04:10 8,1 C 10,4 C 7,6 C 8,0 C 7,8 C 0,0 C 93 % 97 % 0 % 1015,4 hPa 0,0 l/m 0,5 km/h (0 Bft) NW 315 0 min 0,0 UV-I 7,0 C 7,8 C 0,0 km/h (0 Bft)
26.10.2009 04:15 8,0 C 10,4 C 7,7 C 7,9 C 7,8 C 0,0 C 93 % 97 % 0 % 1015,4 hPa 0,0 l/m 0,5 km/h (0 Bft) S 180 0 min 0,0 UV-I 6,9 C 7,8 C 0,0 km/h (0 Bft)
26.10.2009 04:20 8,1 C 10,4 C 7,8 C 8,0 C 7,8 C 0,0 C 93 % 97 % 0 % 1015,3 hPa 0,0 l/m 0,3 km/h (0 Bft) S-SO 157 0 min 0,0 UV-I 7,0 C 7,8 C 1,8 km/h (1 Bft)
26.10.2009 04:25 8,1 C 10,4 C 7,8 C 8,0 C 7,9 C 0,0 C 93 % 97 % 0 % 1015,3 hPa 0,0 l/m 0,3 km/h (0 Bft) W-SW 247 0 min 0,0 UV-I 7,0 C 7,9 C 0,0 km/h (0 Bft)
26.10.2009 04:30 8,3 C 10,3 C 7,9 C 8,2 C 8,0 C 0,0 C 94 % 97 % 0 % 1015,3 hPa 0,0 l/m 0,5 km/h (0 Bft) NO 45 0 min 0,0 UV-I 7,4 C 8,0 C 0,0 km/h (0 Bft)
26.10.2009 04:35 8,3 C 10,3 C 8,0 C 8,2 C 8,0 C 0,0 C 94 % 97 % 0 % 1015,3 hPa 0,0 l/m 0,6 km/h (0 Bft) W-NW 292 0 min 0,0 UV-I 7,4 C 8,0 C 0,0 km/h (0 Bft)
26.10.2009 04:40 8,3 C 10,3 C 8,1 C 8,2 C 8,0 C 0,0 C 94 % 97 % 0 % 1015,2 hPa 0,0 l/m 0,5 km/h (0 Bft) NW 315 0 min 0,0 UV-I 7,4 C 8,0 C 0,0 km/h (0 Bft)
26.10.2009 04:45 8,3 C 10,3 C 8,0 C 8,2 C 8,0 C 0,0 C 94 % 97 % 0 % 1015,2 hPa 0,0 l/m 0,3 km/h (0 Bft) S-SW 202 0 min 0,0 UV-I 7,4 C 8,0 C 0,0 km/h (0 Bft)
26.10.2009 04:50 8,3 C 10,4 C 8,0 C 8,2 C 8,0 C 0,0 C 94 % 97 % 0 % 1015,2 hPa 0,0 l/m 0,2 km/h (0 Bft) W-SW 247 0 min 0,0 UV-I 7,4 C 8,0 C 0,0 km/h (0 Bft)
26.10.2009 04:55 8,3 C 10,4 C 8,1 C 8,2 C 8,0 C 0,0 C 94 % 97 % 0 % 1015,2 hPa 0,0 l/m 0,2 km/h (0 Bft) O-NO 67 0 min 0,0 UV-I 7,4 C 8,0 C 0,0 km/h (0 Bft)
26.10.2009 05:00 8,2 C 10,4 C 8,1 C 8,1 C 7,9 C 0,0 C 93 % 97 % 0 % 1015,8 hPa 0,0 l/m 0,0 km/h (0 Bft) NO 45 0 min 0,0 UV-I 7,1 C 7,9 C 0,0 km/h (0 Bft)
26.10.2009 05:10 8,3 C 10,4 C 8,0 C 8,1 C 7,8 C 0,0 C 94 % 97 % 0 % 1015,8 hPa 0,0 l/m 0,0 km/h (0 Bft) O-NO 67 0 min 0,0 UV-I 7,4 C 7,8 C 0,0 km/h (0 Bft)
26.10.2009 05:15 8,3 C 10,4 C 7,9 C 8,1 C 7,8 C 0,0 C 94 % 97 % 0 % 1015,8 hPa 0,0 l/m 0,0 km/h (0 Bft) O 90 0 min 0,0 UV-I 7,4 C 7,8 C 0,0 km/h (0 Bft)
26.10.2009 05:20 8,3 C 10,4 C 7,9 C 8,1 C 7,7 C 0,0 C 94 % 97 % 0 % 1015,9 hPa 0,0 l/m 0,0 km/h (0 Bft) O-NO 67 0 min 0,0 UV-I 7,4 C 7,7 C 0,0 km/h (0 Bft)
26.10.2009 05:25 8,3 C 10,4 C 7,9 C 8,1 C 7,6 C 0,0 C 94 % 96 % 0 % 1015,9 hPa 0,0 l/m 0,0 km/h (0 Bft) NW 315 0 min 0,0 UV-I 7,4 C 7,6 C 0,0 km/h (0 Bft)
26.10.2009 05:30 8,3 C 10,4 C 8,0 C 8,0 C 7,5 C 0,0 C 94 % 97 % 0 % 1015,9 hPa 0,0 l/m 0,0 km/h (0 Bft) O-NO 67 0 min 0,0 UV-I 7,4 C 7,5 C 0,0 km/h (0 Bft)
26.10.2009 05:35 8,3 C 10,4 C 7,9 C 8,0 C 7,5 C 0,0 C 94 % 96 % 0 % 1015,9 hPa 0,0 l/m 0,0 km/h (0 Bft) N-NO 22 0 min 0,0 UV-I 7,4 C 7,5 C 0,0 km/h (0 Bft)
26.10.2009 05:40 8,3 C 10,4 C 7,9 C 8,0 C 7,3 C 0,0 C 93 % 96 % 0 % 1015,2 hPa 0,0 l/m 0,0 km/h (0 Bft) SO 135 0 min 0,0 UV-I 7,2 C 7,3 C 0,0 km/h (0 Bft)
26.10.2009 05:45 8,1 C 10,4 C 7,8 C 7,8 C 7,2 C 0,0 C 93 % 96 % 0 % 1015,2 hPa 0,0 l/m 0,0 km/h (0 Bft) O-NO 67 0 min 0,0 UV-I 7,0 C 7,2 C 0,0 km/h (0 Bft)
26.10.2009 05:50 8,0 C 10,4 C 7,7 C 7,7 C 7,1 C 0,0 C 93 % 96 % 0 % 1015,2 hPa 0,0 l/m 0,0 km/h (0 Bft) O-NO 67 0 min 0,0 UV-I 6,9 C 7,1 C 0,0 km/h (0 Bft)
26.10.2009 05:55 8,0 C 10,4 C 7,6 C 7,7 C 7,0 C 0,0 C 93 % 96 % 0 % 1015,2 hPa 0,0 l/m 0,0 km/h (0 Bft) O-NO 67 0 min 0,0 UV-I 6,9 C 7,0 C 0,0 km/h (0 Bft)
26.10.2009 06:00 8,0 C 10,4 C 7,6 C 7,6 C 6,9 C 0,0 C 93 % 96 % 0 % 1015,0 hPa 0,0 l/m 0,0 km/h (0 Bft) S 180 0 min 0,0 UV-I 6,9 C 6,9 C 0,0 km/h (0 Bft)
26.10.2009 06:10 8,0 C 10,4 C 7,5 C 7,6 C 6,9 C 0,0 C 93 % 96 % 0 % 1015,0 hPa 0,0 l/m 1,1 km/h (1 Bft) S-SW 202 0 min 0,0 UV-I 6,9 C 6,9 C 1,9 km/h (1 Bft)
26.10.2009 06:15 8,0 C 10,2 C 7,6 C 7,7 C 7,1 C 0,0 C 93 % 96 % 0 % 1015,0 hPa 0,0 l/m 1,3 km/h (1 Bft) SW 225 0 min 0,0 UV-I 6,9 C 7,1 C 0,0 km/h (0 Bft)
26.10.2009 06:20 8,1 C 10,2 C 7,7 C 7,8 C 7,2 C 0,0 C 93 % 96 % 0 % 1014,9 hPa 0,0 l/m 0,8 km/h (0 Bft) SO 135 0 min 0,0 UV-I 7,0 C 7,2 C 3,1 km/h (1 Bft)
26.10.2009 06:25 8,1 C 10,2 C 7,7 C 7,8 C 7,3 C 0,0 C 93 % 96 % 0 % 1014,9 hPa 0,0 l/m 0,5 km/h (0 Bft) N-NO 22 0 min 0,0 UV-I 7,0 C 7,3 C 0,0 km/h (0 Bft)
26.10.2009 06:30 8,1 C 10,2 C 7,7 C 7,8 C 7,3 C 0,0 C 93 % 96 % 0 % 1014,9 hPa 0,0 l/m 0,6 km/h (0 Bft) W-SW 247 0 min 0,0 UV-I 7,0 C 7,3 C 5,5 km/h (1 Bft)
26.10.2009 06:35 8,2 C 10,2 C 7,7 C 7,9 C 7,3 C 0,0 C 93 % 96 % 0 % 1014,9 hPa 0,0 l/m 0,6 km/h (0 Bft) N-NO 22 0 min 0,0 UV-I 7,1 C 7,3 C 2,3 km/h (1 Bft)
26.10.2009 06:40 8,3 C 10,1 C 7,8 C 8,0 C 7,4 C 0,0 C 92 % 96 % 0 % 1015,7 hPa 0,0 l/m 1,0 km/h (0 Bft) NO 45 0 min 0,0 UV-I 7,1 C 7,4 C 0,0 km/h (0 Bft)
26.10.2009 06:45 8,3 C 10,1 C 7,9 C 8,0 C 7,4 C 0,0 C 92 % 96 % 0 % 1015,7 hPa 0,0 l/m 0,6 km/h (0 Bft) NW 315 0 min 0,0 UV-I 7,1 C 7,4 C 0,0 km/h (0 Bft)
26.10.2009 06:50 8,2 C 10,0 C 7,8 C 7,9 C 7,4 C 0,0 C 92 % 96 % 0 % 1015,7 hPa 0,0 l/m 0,3 km/h (0 Bft) SW 225 0 min 0,0 UV-I 7,0 C 7,4 C 0,0 km/h (0 Bft)
26.10.2009 06:55 8,3 C 10,1 C 7,9 C 8,0 C 7,5 C 0,0 C 92 % 96 % 0 % 1015,7 hPa 0,0 l/m 0,6 km/h (0 Bft) SO 135 0 min 0,0 UV-I 7,1 C 7,5 C 2,3 km/h (1 Bft)
26.10.2009 07:00 8,3 C 10,0 C 7,8 C 8,0 C 7,5 C 0,0 C 92 % 96 % 0 % 1015,2 hPa 0,0 l/m 1,3 km/h (1 Bft) NO 45 0 min 0,0 UV-I 7,1 C 7,5 C 6,9 km/h (2 Bft)
26.10.2009 07:10 8,3 C 10,1 C 7,8 C 8,1 C 7,6 C 0,0 C 92 % 95 % 0 % 1015,2 hPa 0,0 l/m 1,1 km/h (1 Bft) SO 135 0 min 0,0 UV-I 7,1 C 7,6 C 0,0 km/h (0 Bft)
26.10.2009 07:15 8,3 C 10,0 C 8,0 C 8,1 C 7,7 C 0,0 C 92 % 95 % 0 % 1015,2 hPa 0,0 l/m 1,1 km/h (1 Bft) NW 315 0 min 0,0 UV-I 7,1 C 7,7 C 2,7 km/h (1 Bft)
26.10.2009 07:20 8,4 C 10,0 C 8,1 C 8,2 C 7,7 C 0,0 C 92 % 95 % 0 % 1015,2 hPa 0,0 l/m 1,1 km/h (1 Bft) SO 135 0 min 0,0 UV-I 7,2 C 7,7 C 1,8 km/h (1 Bft)
26.10.2009 07:25 8,4 C 10,0 C 8,1 C 8,2 C 7,8 C 0,0 C 92 % 95 % 0 % 1015,2 hPa 0,0 l/m 1,1 km/h (1 Bft) W-SW 247 0 min 0,0 UV-I 7,2 C 7,8 C 0,0 km/h (0 Bft)
26.10.2009 07:30 8,5 C 10,1 C 8,0 C 8,3 C 7,9 C 0,0 C 92 % 95 % 0 % 1015,2 hPa 0,0 l/m 1,3 km/h (1 Bft) SW 225 0 min 0,0 UV-I 7,3 C 7,9 C 3,2 km/h (1 Bft)
26.10.2009 07:35 8,4 C 10,1 C 8,1 C 8,3 C 8,0 C 0,0 C 92 % 95 % 0 % 1015,2 hPa 0,0 l/m 1,4 km/h (1 Bft) S-SO 157 0 min 0,0 UV-I 7,2 C 8,0 C 4,0 km/h (1 Bft)
26.10.2009 07:40 8,5 C 10,0 C 8,3 C 8,3 C 8,0 C 0,0 C 92 % 95 % 0 % 1015,4 hPa 0,0 l/m 1,0 km/h (0 Bft) O-SO 112 0 min 0,0 UV-I 7,3 C 8,0 C 0,0 km/h (0 Bft)
26.10.2009 07:45 8,7 C 10,0 C 8,3 C 8,5 C 8,1 C 0,0 C 92 % 95 % 0 % 1015,4 hPa 0,0 l/m 1,0 km/h (0 Bft) W-SW 247 0 min 0,0 UV-I 7,5 C 8,1 C 3,5 km/h (1 Bft)
26.10.2009 07:50 8,6 C 10,0 C 8,3 C 8,5 C 8,2 C 0,0 C 92 % 95 % 0 % 1015,4 hPa 0,0 l/m 0,6 km/h (0 Bft) O 90 0 min 0,0 UV-I 7,4 C 8,2 C 0,0 km/h (0 Bft)
26.10.2009 07:55 8,6 C 10,0 C 8,4 C 8,5 C 8,3 C 0,0 C 92 % 95 % 0 % 1015,4 hPa 0,0 l/m 1,0 km/h (0 Bft) S 180 0 min 0,0 UV-I 7,4 C 8,3 C 3,7 km/h (1 Bft)
26.10.2009 08:00 8,7 C 10,0 C 8,4 C 8,6 C 8,4 C 0,0 C 92 % 95 % 0 % 1015,6 hPa 0,0 l/m 1,3 km/h (1 Bft) SW 225 0 min 0,0 UV-I 7,5 C 8,4 C 2,9 km/h (1 Bft)
26.10.2009 08:10 8,9 C 10,0 C 8,4 C 8,8 C 8,6 C 0,0 C 91 % 95 % 0 % 1015,6 hPa 0,0 l/m 1,4 km/h (1 Bft) S-SO 157 0 min 0,0 UV-I 7,5 C 8,6 C 1,8 km/h (1 Bft)
26.10.2009 08:15 8,8 C 10,0 C 8,5 C 8,8 C 8,7 C 0,0 C 91 % 95 % 0 % 1015,6 hPa 0,0 l/m 0,8 km/h (0 Bft) SW 225 0 min 0,0 UV-I 7,4 C 8,7 C 0,0 km/h (0 Bft)
26.10.2009 08:20 8,9 C 10,0 C 8,7 C 8,9 C 8,8 C 0,0 C 91 % 95 % 0 % 1015,5 hPa 0,0 l/m 0,6 km/h (0 Bft) SW 225 0 min 0,0 UV-I 7,5 C 8,8 C 0,0 km/h (0 Bft)
26.10.2009 08:25 9,0 C 10,0 C 8,7 C 9,0 C 8,9 C 0,0 C 91 % 95 % 0 % 1015,5 hPa 0,0 l/m 0,5 km/h (0 Bft) SO 135 0 min 0,0 UV-I 7,6 C 8,9 C 2,4 km/h (1 Bft)
26.10.2009 08:30 8,9 C 10,0 C 8,7 C 9,0 C 9,0 C 0,1 C 91 % 95 % 3 % 1015,5 hPa 0,0 l/m 1,0 km/h (0 Bft) SW 225 0 min 0,0 UV-I 7,5 C 9,0 C 0,0 km/h (0 Bft)
26.10.2009 08:35 9,1 C 9,9 C 8,8 C 9,1 C 9,1 C 0,0 C 91 % 95 % 0 % 1015,5 hPa 0,0 l/m 1,3 km/h (1 Bft) O-SO 112 0 min 0,0 UV-I 7,7 C 9,1 C 2,4 km/h (1 Bft)
26.10.2009 08:40 9,1 C 9,9 C 8,8 C 9,4 C 9,4 C 0,3 C 91 % 95 % 8 % 1015,7 hPa 0,0 l/m 0,8 km/h (0 Bft) S 180 0 min 0,0 UV-I 7,7 C 9,4 C 0,0 km/h (0 Bft)
26.10.2009 08:45 9,2 C 9,9 C 8,9 C 9,5 C 9,5 C 0,3 C 91 % 95 % 8 % 1015,7 hPa 0,0 l/m 0,3 km/h (0 Bft) SW 225 0 min 0,0 UV-I 7,8 C 9,5 C 0,0 km/h (0 Bft)
26.10.2009 08:50 9,2 C 9,9 C 9,1 C 9,7 C 9,7 C 0,5 C 91 % 95 % 13 % 1015,7 hPa 0,0 l/m 0,5 km/h (0 Bft) O-NO 67 0 min 0,0 UV-I 7,8 C 9,7 C 7,1 km/h (2 Bft)
26.10.2009 08:55 9,3 C 9,9 C 9,1 C 9,7 C 9,7 C 0,4 C 90 % 95 % 11 % 1015,7 hPa 0,0 l/m 0,8 km/h (0 Bft) W-SW 247 0 min 0,0 UV-I 7,7 C 9,7 C 2,3 km/h (1 Bft)
26.10.2009 09:00 9,5 C 9,9 C 9,2 C 9,8 C 9,8 C 0,3 C 90 % 95 % 8 % 1016,2 hPa 0,0 l/m 1,0 km/h (0 Bft) SW 225 0 min 0,0 UV-I 7,9 C 9,8 C 2,3 km/h (1 Bft)
26.10.2009 09:10 9,5 C 9,9 C 9,3 C 10,0 C 10,0 C 0,5 C 90 % 95 % 13 % 1016,2 hPa 0,0 l/m 1,3 km/h (1 Bft) S 180 0 min 0,0 UV-I 7,9 C 10,0 C 6,0 km/h (2 Bft)
26.10.2009 09:15 9,5 C 9,9 C 9,3 C 10,0 C 10,0 C 0,5 C 90 % 94 % 13 % 1016,2 hPa 0,0 l/m 1,6 km/h (1 Bft) S-SO 157 0 min 0,0 UV-I 7,9 C 10,0 C 7,1 km/h (2 Bft)
26.10.2009 09:20 9,6 C 10,0 C 9,5 C 10,1 C 10,1 C 0,5 C 90 % 94 % 13 % 1015,8 hPa 0,0 l/m 1,9 km/h (1 Bft) S 180 0 min 0,1 UV-I 8,0 C 10,1 C 8,5 km/h (2 Bft)
26.10.2009 09:25 9,6 C 9,9 C 9,5 C 10,2 C 10,2 C 0,6 C 90 % 94 % 16 % 1015,8 hPa 0,0 l/m 2,4 km/h (1 Bft) S-SW 202 0 min 0,1 UV-I 8,0 C 10,2 C 2,4 km/h (1 Bft)
26.10.2009 09:30 9,7 C 9,9 C 9,5 C 10,4 C 10,4 C 0,7 C 90 % 94 % 18 % 1015,8 hPa 0,0 l/m 2,1 km/h (1 Bft) S 180 0 min 0,1 UV-I 8,1 C 10,4 C 0,0 km/h (0 Bft)
26.10.2009 09:35 9,8 C 9,9 C 9,6 C 10,6 C 10,6 C 0,8 C 90 % 95 % 21 % 1015,8 hPa 0,0 l/m 1,1 km/h (1 Bft) SO 135 0 min 0,1 UV-I 8,2 C 10,6 C 0,0 km/h (0 Bft)
26.10.2009 09:40 9,9 C 9,9 C 9,6 C 10,7 C 10,7 C 0,8 C 90 % 95 % 21 % 1016,4 hPa 0,0 l/m 1,4 km/h (1 Bft) W-SW 247 0 min 0,1 UV-I 8,3 C 10,7 C 2,9 km/h (1 Bft)
26.10.2009 09:45 9,9 C 9,9 C 9,7 C 10,8 C 10,8 C 0,9 C 90 % 95 % 24 % 1016,4 hPa 0,0 l/m 2,3 km/h (1 Bft) S-SW 202 0 min 0,2 UV-I 8,3 C 10,8 C 5,1 km/h (1 Bft)
26.10.2009 09:50 10,0 C 9,9 C 9,9 C 11,2 C 11,2 C 1,2 C 90 % 95 % 32 % 1016,4 hPa 0,0 l/m 2,3 km/h (1 Bft) SW 225 0 min 0,2 UV-I 8,4 C 11,2 C 5,1 km/h (1 Bft)
26.10.2009 09:55 10,1 C 9,9 C 9,9 C 11,4 C 11,4 C 1,3 C 90 % 95 % 34 % 1016,4 hPa 0,0 l/m 2,1 km/h (1 Bft) SW 225 0 min 0,2 UV-I 8,5 C 11,4 C 2,7 km/h (1 Bft)
26.10.2009 10:00 10,3 C 9,9 C 10,0 C 11,9 C 11,9 C 1,6 C 90 % 95 % 42 % 1015,9 hPa 0,0 l/m 1,4 km/h (1 Bft) S-SW 202 0 min 0,2 UV-I 8,7 C 11,9 C 10,8 km/h (2 Bft)
26.10.2009 10:10 10,4 C 9,9 C 10,4 C 12,2 C 12,2 C 1,8 C 90 % 94 % 47 % 1015,9 hPa 0,0 l/m 3,9 km/h (1 Bft) SW 225 0 min 0,2 UV-I 8,8 C 12,2 C 5,1 km/h (1 Bft)
26.10.2009 10:15 10,5 C 9,9 C 10,4 C 12,3 C 12,3 C 1,8 C 89 % 94 % 47 % 1015,9 hPa 0,0 l/m 4,5 km/h (1 Bft) S 180 0 min 0,2 UV-I 8,8 C 12,3 C 13,0 km/h (3 Bft)
26.10.2009 10:20 10,5 C 9,9 C 10,4 C 12,3 C 12,3 C 1,8 C 89 % 93 % 47 % 1015,9 hPa 0,0 l/m 5,0 km/h (1 Bft) W 270 0 min 0,2 UV-I 8,8 C 12,3 C 5,8 km/h (2 Bft)
26.10.2009 10:25 10,7 C 9,8 C 10,5 C 12,3 C 12,3 C 1,6 C 89 % 93 % 42 % 1015,9 hPa 0,0 l/m 4,2 km/h (1 Bft) O 90 0 min 0,3 UV-I 9,0 C 12,3 C 5,8 km/h (2 Bft)
26.10.2009 10:30 10,6 C 9,8 C 10,6 C 12,3 C 12,3 C 1,7 C 89 % 93 % 45 % 1015,9 hPa 0,0 l/m 3,7 km/h (1 Bft) SW 225 0 min 0,3 UV-I 8,9 C 12,3 C 4,3 km/h (1 Bft)
26.10.2009 10:35 10,7 C 9,9 C 10,6 C 12,4 C 12,4 C 1,7 C 88 % 93 % 45 % 1015,9 hPa 0,0 l/m 4,5 km/h (1 Bft) S-SW 202 0 min 0,3 UV-I 8,8 C 12,4 C 9,2 km/h (2 Bft)
26.10.2009 10:40 10,9 C 9,9 C 10,7 C 12,7 C 12,7 C 1,8 C 88 % 93 % 47 % 1016,6 hPa 0,0 l/m 3,5 km/h (1 Bft) W 270 0 min 0,4 UV-I 9,0 C 12,7 C 13,4 km/h (3 Bft)
26.10.2009 10:45 11,1 C 9,9 C 10,8 C 13,0 C 13,0 C 1,9 C 88 % 93 % 50 % 1016,6 hPa 0,0 l/m 3,2 km/h (1 Bft) S 180 0 min 0,4 UV-I 9,2 C 13,0 C 10,0 km/h (2 Bft)
26.10.2009 10:50 11,0 C 9,9 C 11,0 C 13,1 C 13,1 C 2,1 C 88 % 93 % 55 % 1016,6 hPa 0,0 l/m 2,7 km/h (1 Bft) S 180 0 min 0,4 UV-I 9,1 C 13,1 C 10,6 km/h (2 Bft)
26.10.2009 10:55 11,1 C 9,9 C 11,1 C 13,0 C 13,0 C 1,9 C 88 % 92 % 50 % 1016,6 hPa 0,0 l/m 2,7 km/h (1 Bft) S-SO 157 0 min 0,4 UV-I 9,2 C 13,0 C 4,8 km/h (1 Bft)
26.10.2009 11:00 11,1 C 9,9 C 11,1 C 13,0 C 13,0 C 1,9 C 88 % 92 % 50 % 1015,9 hPa 0,0 l/m 2,9 km/h (1 Bft) SW 225 0 min 0,4 UV-I 9,2 C 13,0 C 2,4 km/h (1 Bft)
26.10.2009 11:10 11,5 C 9,9 C 11,3 C 14,6 C 14,6 C 3,1 C 87 % 91 % 82 % 1015,9 hPa 0,0 l/m 4,8 km/h (1 Bft) SO 135 0 min 0,4 UV-I 9,4 C 14,6 C 4,5 km/h (1 Bft)
26.10.2009 11:15 11,6 C 9,9 C 11,5 C 15,2 C 15,2 C 3,6 C 87 % 91 % 95 % 1015,9 hPa 0,0 l/m 5,1 km/h (1 Bft) S 180 5 min 0,5 UV-I 9,5 C 15,2 C 13,0 km/h (3 Bft)
26.10.2009 11:20 11,7 C 9,9 C 11,6 C 15,8 C 15,8 C 4,1 C 86 % 90 % 100 % 1016,4 hPa 0,0 l/m 6,6 km/h (2 Bft) W-SW 247 5 min 0,4 UV-I 9,4 C 15,8 C 14,0 km/h (3 Bft)
26.10.2009 11:25 11,8 C 9,9 C 11,6 C 15,9 C 15,9 C 4,1 C 86 % 90 % 100 % 1016,4 hPa 0,0 l/m 7,1 km/h (2 Bft) S 180 5 min 0,4 UV-I 9,5 C 15,9 C 6,0 km/h (2 Bft)
26.10.2009 11:30 12,0 C 9,9 C 11,9 C 16,5 C 16,5 C 4,5 C 85 % 88 % 100 % 1016,4 hPa 0,0 l/m 5,6 km/h (1 Bft) O-SO 112 5 min 0,4 UV-I 9,6 C 16,5 C 17,1 km/h (3 Bft)
26.10.2009 11:35 12,1 C 9,9 C 11,9 C 16,7 C 16,7 C 4,6 C 84 % 89 % 100 % 1016,4 hPa 0,0 l/m 5,5 km/h (1 Bft) W 270 5 min 0,4 UV-I 9,5 C 16,7 C 8,2 km/h (2 Bft)
26.10.2009 11:40 12,1 C 9,9 C 12,1 C 15,9 C 15,9 C 3,8 C 84 % 88 % 100 % 1015,8 hPa 0,0 l/m 7,6 km/h (2 Bft) SW 225 5 min 0,4 UV-I 9,5 C 15,9 C 17,4 km/h (3 Bft)
26.10.2009 11:45 12,2 C 9,9 C 12,1 C 15,2 C 15,2 C 3,0 C 84 % 88 % 79 % 1015,8 hPa 0,0 l/m 7,4 km/h (2 Bft) SO 135 0 min 0,5 UV-I 9,6 C 15,2 C 3,1 km/h (1 Bft)
26.10.2009 11:50 12,3 C 9,9 C 12,2 C 15,4 C 15,4 C 3,1 C 83 % 87 % 82 % 1015,8 hPa 0,0 l/m 4,8 km/h (1 Bft) O-NO 67 0 min 0,5 UV-I 9,5 C 15,4 C 3,1 km/h (1 Bft)
26.10.2009 11:55 12,4 C 9,9 C 12,3 C 15,7 C 15,7 C 3,3 C 82 % 85 % 87 % 1015,8 hPa 0,0 l/m 5,8 km/h (2 Bft) S 180 5 min 0,4 UV-I 9,4 C 15,7 C 4,3 km/h (1 Bft)
26.10.2009 12:00 12,5 C 9,9 C 12,3 C 15,5 C 15,5 C 3,0 C 81 % 86 % 79 % 1015,6 hPa 0,0 l/m 5,6 km/h (1 Bft) N-NW 337 0 min 0,4 UV-I 9,3 C 15,5 C 5,3 km/h (1 Bft)
26.10.2009 12:10 12,5 C 10,0 C 12,5 C 14,9 C 14,9 C 2,4 C 80 % 83 % 63 % 1015,6 hPa 0,0 l/m 5,0 km/h (1 Bft) SW 225 0 min 0,4 UV-I 9,1 C 14,9 C 15,0 km/h (3 Bft)
26.10.2009 12:15 12,5 C 10,0 C 12,4 C 14,7 C 14,7 C 2,2 C 80 % 84 % 58 % 1015,6 hPa 0,0 l/m 4,8 km/h (1 Bft) W 270 0 min 0,4 UV-I 9,1 C 14,7 C 3,2 km/h (1 Bft)
26.10.2009 12:20 12,5 C 10,0 C 12,4 C 14,6 C 14,6 C 2,1 C 80 % 84 % 55 % 1015,5 hPa 0,0 l/m 5,1 km/h (1 Bft) W-SW 247 0 min 0,4 UV-I 9,1 C 14,6 C 12,6 km/h (3 Bft)
26.10.2009 12:25 12,5 C 10,0 C 12,4 C 14,8 C 14,8 C 2,3 C 79 % 82 % 61 % 1015,5 hPa 0,0 l/m 6,3 km/h (2 Bft) SW 225 0 min 0,4 UV-I 9,0 C 14,8 C 10,5 km/h (2 Bft)
26.10.2009 12:30 12,7 C 10,0 C 12,6 C 14,5 C 14,2 C 1,8 C 79 % 81 % 47 % 1015,5 hPa 0,0 l/m 9,3 km/h (2 Bft) W 270 0 min 0,4 UV-I 9,2 C 14,2 C 23,2 km/h (4 Bft)
26.10.2009 12:35 12,7 C 10,0 C 12,7 C 14,2 C 14,0 C 1,5 C 79 % 80 % 39 % 1015,5 hPa 0,0 l/m 9,0 km/h (2 Bft) S-SO 157 0 min 0,4 UV-I 9,2 C 14,0 C 9,3 km/h (2 Bft)
26.10.2009 12:40 12,7 C 10,0 C 12,7 C 14,2 C 14,1 C 1,5 C 78 % 81 % 39 % 1015,3 hPa 0,0 l/m 8,9 km/h (2 Bft) SW 225 0 min 0,4 UV-I 9,0 C 14,1 C 7,1 km/h (2 Bft)
26.10.2009 12:45 12,8 C 10,0 C 12,7 C 14,1 C 14,1 C 1,3 C 78 % 80 % 34 % 1015,3 hPa 0,0 l/m 8,7 km/h (2 Bft) W-SW 247 0 min 0,4 UV-I 9,1 C 14,1 C 9,2 km/h (2 Bft)
26.10.2009 12:50 12,9 C 10,0 C 12,8 C 14,7 C 14,7 C 1,8 C 78 % 81 % 47 % 1015,3 hPa 0,0 l/m 5,3 km/h (1 Bft) S-SW 202 0 min 0,4 UV-I 9,2 C 14,7 C 6,1 km/h (2 Bft)
26.10.2009 12:55 13,1 C 10,0 C 12,8 C 14,8 C 14,8 C 1,7 C 78 % 80 % 45 % 1015,3 hPa 0,0 l/m 5,0 km/h (1 Bft) S 180 0 min 0,4 UV-I 9,4 C 14,8 C 3,7 km/h (1 Bft)
26.10.2009 13:00 13,1 C 10,1 C 12,9 C 14,6 C 14,6 C 1,5 C 77 % 80 % 39 % 1015,2 hPa 0,0 l/m 4,3 km/h (1 Bft) S-SO 157 0 min 0,4 UV-I 9,2 C 14,6 C 10,0 km/h (2 Bft)
26.10.2009 13:10 13,3 C 10,1 C 13,1 C 14,8 C 14,8 C 1,5 C 77 % 79 % 39 % 1015,2 hPa 0,0 l/m 2,9 km/h (1 Bft) S-SW 202 0 min 0,4 UV-I 9,4 C 14,8 C 6,1 km/h (2 Bft)
26.10.2009 13:15 13,3 C 10,1 C 13,1 C 14,8 C 14,8 C 1,5 C 77 % 80 % 39 % 1015,2 hPa 0,0 l/m 3,5 km/h (1 Bft) S 180 0 min 0,3 UV-I 9,4 C 14,8 C 2,9 km/h (1 Bft)
26.10.2009 13:20 13,5 C 10,0 C 13,2 C 14,9 C 14,9 C 1,4 C 76 % 78 % 37 % 1015,4 hPa 0,0 l/m 3,9 km/h (1 Bft) O-NO 67 0 min 0,3 UV-I 9,4 C 14,9 C 4,7 km/h (1 Bft)
26.10.2009 13:25 13,4 C 10,0 C 13,2 C 15,0 C 15,0 C 1,6 C 76 % 79 % 42 % 1015,4 hPa 0,0 l/m 4,0 km/h (1 Bft) W-SW 247 0 min 0,3 UV-I 9,3 C 15,0 C 6,0 km/h (2 Bft)
26.10.2009 13:30 13,6 C 10,0 C 13,5 C 15,3 C 15,3 C 1,7 C 76 % 78 % 45 % 1015,4 hPa 0,0 l/m 4,5 km/h (1 Bft) W-SW 247 0 min 0,3 UV-I 9,4 C 15,3 C 12,1 km/h (2 Bft)
26.10.2009 13:35 13,7 C 10,0 C 13,5 C 15,4 C 15,4 C 1,7 C 74 % 77 % 45 % 1015,4 hPa 0,0 l/m 5,0 km/h (1 Bft) SW 225 0 min 0,3 UV-I 9,2 C 15,4 C 10,0 km/h (2 Bft)
26.10.2009 13:40 13,6 C 10,1 C 13,6 C 15,6 C 15,6 C 2,0 C 74 % 76 % 53 % 1015,1 hPa 0,0 l/m 5,5 km/h (1 Bft) S 180 0 min 0,3 UV-I 9,1 C 15,6 C 21,1 km/h (4 Bft)
26.10.2009 13:45 13,5 C 10,1 C 13,5 C 15,4 C 15,4 C 1,9 C 74 % 75 % 50 % 1015,1 hPa 0,0 l/m 6,6 km/h (2 Bft) W-SW 247 0 min 0,3 UV-I 9,0 C 15,4 C 4,2 km/h (1 Bft)
26.10.2009 13:50 13,6 C 10,1 C 13,6 C 15,2 C 15,2 C 1,6 C 74 % 76 % 42 % 1015,1 hPa 0,0 l/m 6,6 km/h (2 Bft) W-SW 247 0 min 0,3 UV-I 9,1 C 15,2 C 8,9 km/h (2 Bft)
26.10.2009 13:55 13,7 C 10,1 C 13,9 C 15,6 C 15,6 C 1,9 C 74 % 74 % 50 % 1015,1 hPa 0,0 l/m 4,5 km/h (1 Bft) NO 45 0 min 0,2 UV-I 9,2 C 15,6 C 6,9 km/h (2 Bft)
26.10.2009 14:00 13,7 C 10,1 C 13,9 C 15,6 C 15,6 C 1,9 C 74 % 74 % 50 % 1015,2 hPa 0,0 l/m 6,8 km/h (2 Bft) SO 135 0 min 0,2 UV-I 9,2 C 15,6 C 9,0 km/h (2 Bft)
26.10.2009 14:10 13,5 C 10,1 C 13,3 C 14,7 C 14,7 C 1,2 C 73 % 75 % 32 % 1015,2 hPa 0,0 l/m 6,6 km/h (2 Bft) S 180 0 min 0,1 UV-I 8,8 C 14,7 C 7,7 km/h (2 Bft)
26.10.2009 14:15 13,3 C 10,1 C 13,3 C 14,5 C 14,5 C 1,2 C 74 % 75 % 32 % 1015,2 hPa 0,0 l/m 6,3 km/h (2 Bft) S-SW 202 0 min 0,1 UV-I 8,8 C 14,5 C 11,6 km/h (2 Bft)
26.10.2009 14:20 13,2 C 10,1 C 13,1 C 14,3 C 14,3 C 1,1 C 73 % 76 % 29 % 1015,2 hPa 0,0 l/m 6,1 km/h (2 Bft) W-NW 292 0 min 0,1 UV-I 8,5 C 14,3 C 11,4 km/h (2 Bft)
26.10.2009 14:25 13,2 C 10,1 C 13,1 C 14,2 C 14,2 C 1,0 C 73 % 76 % 26 % 1015,2 hPa 0,0 l/m 5,6 km/h (1 Bft) SW 225 0 min 0,1 UV-I 8,5 C 14,2 C 13,0 km/h (3 Bft)
26.10.2009 14:30 13,2 C 10,2 C 13,0 C 14,0 C 14,0 C 0,8 C 74 % 76 % 21 % 1015,2 hPa 0,0 l/m 5,3 km/h (1 Bft) SW 225 0 min 0,1 UV-I 8,7 C 14,0 C 4,5 km/h (1 Bft)
26.10.2009 14:35 13,1 C 10,2 C 12,8 C 14,0 C 14,0 C 0,9 C 75 % 77 % 24 % 1015,2 hPa 0,0 l/m 5,6 km/h (1 Bft) W-SW 247 0 min 0,0 UV-I 8,8 C 14,0 C 2,6 km/h (1 Bft)
26.10.2009 14:40 13,0 C 10,2 C 12,7 C 13,9 C 13,9 C 0,9 C 74 % 77 % 24 % 1015,2 hPa 0,0 l/m 3,2 km/h (1 Bft) SW 225 0 min 0,0 UV-I 8,5 C 13,9 C 6,9 km/h (2 Bft)
26.10.2009 14:46 13,0 C 10,3 C 12,8 C 13,8 C 13,8 C 0,8 C 74 % 77 % 21 % 1015,2 hPa 0,0 l/m 4,7 km/h (1 Bft) S-SO 157 0 min 0,0 UV-I 8,5 C 13,8 C 13,7 km/h (3 Bft)
26.10.2009 14:50 13,1 C 10,3 C 12,7 C 13,7 C 13,7 C 0,6 C 74 % 77 % 16 % 1015,2 hPa 0,0 l/m 6,8 km/h (2 Bft) SW 225 0 min 0,0 UV-I 8,6 C 13,7 C 8,0 km/h (2 Bft)
26.10.2009 14:57 13,1 C 10,3 C 12,7 C 13,7 C 13,7 C 0,6 C 74 % 77 % 16 % 1015,2 hPa 0,0 l/m 6,6 km/h (2 Bft) W 270 0 min 0,0 UV-I 8,6 C 13,7 C 11,4 km/h (2 Bft)
26.10.2009 14:58 13,1 C 10,3 C 12,7 C 13,7 C 13,7 C 0,6 C 74 % 77 % 16 % 1015,2 hPa 0,0 l/m 6,6 km/h (2 Bft) W 270 0 min 0,0 UV-I 8,6 C 13,7 C 11,4 km/h (2 Bft)
26.10.2009 14:59 12,9 C 10,3 C 12,7 C 13,4 C 13,4 C 0,5 C 75 % 77 % 13 % 1015,2 hPa 0,0 l/m 6,8 km/h (2 Bft) W-NW 292 0 min 0,0 UV-I 8,6 C 13,4 C 7,6 km/h (2 Bft)
26.10.2009 15:00 12,9 C 10,3 C 12,7 C 13,4 C 13,4 C 0,5 C 75 % 77 % 13 % 1015,2 hPa 0,0 l/m 6,8 km/h (2 Bft) W-NW 292 0 min 0,0 UV-I 8,6 C 13,4 C 7,6 km/h (2 Bft)
26.10.2009 15:01 12,9 C 10,3 C 12,7 C 13,4 C 13,4 C 0,5 C 75 % 77 % 13 % 1015,2 hPa 0,0 l/m 6,8 km/h (2 Bft) W-NW 292 0 min 0,0 UV-I 8,6 C 13,4 C 7,6 km/h (2 Bft)
26.10.2009 15:05 13,5 C 10,1 C 13,9 C 12,4 C 15,1 C 0,0 C 74 % 74 % 0 % 1015,2 hPa 0,0 l/m 7,9 km/h (2 Bft) SW 225 0 min 0,2 UV-I 9,0 C 15,1 C 7,6 km/h (2 Bft)
26.10.2009 15:10 13,5 C 10,1 C 13,3 C 14,7 C 14,7 C 1,2 C 73 % 75 % 32 % 1015,2 hPa 0,0 l/m 6,6 km/h (2 Bft) S 180 0 min 0,1 UV-I 8,8 C 14,7 C 7,7 km/h (2 Bft)
26.10.2009 15:15 13,3 C 10,1 C 13,3 C 14,5 C 14,5 C 1,2 C 74 % 75 % 32 % 1015,2 hPa 0,0 l/m 6,3 km/h (2 Bft) S-SW 202 0 min 0,1 UV-I 8,8 C 14,5 C 11,6 km/h (2 Bft)
26.10.2009 15:20 13,2 C 10,1 C 13,1 C 14,3 C 14,3 C 1,1 C 73 % 76 % 29 % 1015,2 hPa 0,0 l/m 6,1 km/h (2 Bft) W-NW 292 0 min 0,1 UV-I 8,5 C 14,3 C 11,4 km/h (2 Bft)
26.10.2009 15:25 13,2 C 10,1 C 13,1 C 14,2 C 14,2 C 1,0 C 73 % 76 % 26 % 1015,2 hPa 0,0 l/m 5,6 km/h (1 Bft) SW 225 0 min 0,1 UV-I 8,5 C 14,2 C 13,0 km/h (3 Bft)
26.10.2009 15:30 13,2 C 10,2 C 13,0 C 14,0 C 14,0 C 0,8 C 74 % 76 % 21 % 1015,2 hPa 0,0 l/m 5,3 km/h (1 Bft) SW 225 0 min 0,1 UV-I 8,7 C 14,0 C 4,5 km/h (1 Bft)
26.10.2009 15:35 13,1 C 10,2 C 12,8 C 14,0 C 14,0 C 0,9 C 75 % 77 % 24 % 1015,2 hPa 0,0 l/m 5,6 km/h (1 Bft) W-SW 247 0 min 0,0 UV-I 8,8 C 14,0 C 2,6 km/h (1 Bft)
26.10.2009 15:40 13,0 C 10,2 C 12,7 C 13,9 C 13,9 C 0,9 C 74 % 77 % 24 % 1015,2 hPa 0,0 l/m 3,2 km/h (1 Bft) SW 225 0 min 0,0 UV-I 8,5 C 13,9 C 6,9 km/h (2 Bft)
26.10.2009 15:45 13,0 C 10,3 C 12,8 C 13,8 C 13,8 C 0,8 C 74 % 77 % 21 % 1015,2 hPa 0,0 l/m 4,7 km/h (1 Bft) S-SO 157 0 min 0,0 UV-I 8,5 C 13,8 C 13,7 km/h (3 Bft)
26.10.2009 15:50 13,1 C 10,3 C 12,7 C 13,7 C 13,7 C 0,6 C 74 % 77 % 16 % 1015,2 hPa 0,0 l/m 6,8 km/h (2 Bft) SW 225 0 min 0,0 UV-I 8,6 C 13,7 C 8,0 km/h (2 Bft)
26.10.2009 15:55 13,1 C 10,3 C 12,7 C 13,7 C 13,7 C 0,6 C 74 % 77 % 16 % 1015,2 hPa 0,0 l/m 6,6 km/h (2 Bft) W 270 0 min 0,0 UV-I 8,6 C 13,7 C 11,4 km/h (2 Bft)
26.10.2009 16:00 12,9 C 10,3 C 12,7 C 13,4 C 13,4 C 0,5 C 75 % 77 % 13 % 1015,2 hPa 0,0 l/m 6,8 km/h (2 Bft) W-NW 292 0 min 0,0 UV-I 8,6 C 13,4 C 7,6 km/h (2 Bft)
26.10.2009 16:05 12,9 C 10,3 C 12,5 C 13,3 C 13,1 C 0,4 C 74 % 77 % 11 % 1015,2 hPa 0,0 l/m 7,7 km/h (2 Bft) S 180 0 min 0,0 UV-I 8,4 C 13,1 C 9,7 km/h (2 Bft)
26.10.2009 16:10 12,9 C 10,3 C 12,5 C 13,0 C 12,6 C 0,1 C 75 % 77 % 3 % 1015,2 hPa 0,0 l/m 9,5 km/h (2 Bft) SW 225 0 min 0,0 UV-I 8,6 C 12,6 C 19,6 km/h (3 Bft)
26.10.2009 16:15 12,7 C 10,3 C 12,5 C 12,7 C 12,4 C 0,0 C 75 % 77 % 0 % 1015,2 hPa 0,0 l/m 10,3 km/h (2 Bft) W-SW 247 0 min 0,0 UV-I 8,4 C 12,4 C 19,8 km/h (3 Bft)
26.10.2009 16:20 12,7 C 10,3 C 12,4 C 12,6 C 12,4 C 0,0 C 75 % 77 % 0 % 1015,2 hPa 0,0 l/m 9,7 km/h (2 Bft) S 180 0 min 0,0 UV-I 8,4 C 12,4 C 15,3 km/h (3 Bft)
26.10.2009 16:25 12,7 C 10,3 C 12,3 C 12,7 C 12,5 C 0,0 C 75 % 77 % 0 % 1015,2 hPa 0,0 l/m 9,0 km/h (2 Bft) W-SW 247 0 min 0,0 UV-I 8,4 C 12,5 C 8,9 km/h (2 Bft)
26.10.2009 16:30 12,6 C 10,3 C 12,2 C 12,6 C 12,5 C 0,0 C 75 % 78 % 0 % 1015,2 hPa 0,0 l/m 7,4 km/h (2 Bft) W-SW 247 0 min 0,0 UV-I 8,3 C 12,5 C 4,8 km/h (1 Bft)
26.10.2009 16:35 12,5 C 10,3 C 12,1 C 12,9 C 12,9 C 0,4 C 76 % 78 % 11 % 1015,2 hPa 0,0 l/m 5,5 km/h (1 Bft) N-NW 337 0 min 0,0 UV-I 8,4 C 12,9 C 6,9 km/h (2 Bft)
26.10.2009 16:40 12,4 C 10,3 C 12,0 C 12,8 C 12,8 C 0,4 C 76 % 79 % 11 % 1015,1 hPa 0,0 l/m 4,8 km/h (1 Bft) SW 225 0 min 0,0 UV-I 8,3 C 12,8 C 8,0 km/h (2 Bft)
26.10.2009 16:45 12,5 C 10,4 C 12,0 C 12,8 C 12,8 C 0,3 C 76 % 79 % 8 % 1015,1 hPa 0,0 l/m 4,8 km/h (1 Bft) S 180 0 min 0,0 UV-I 8,4 C 12,8 C 15,6 km/h (3 Bft)
26.10.2009 16:50 12,3 C 10,4 C 11,9 C 12,5 C 12,5 C 0,2 C 77 % 79 % 5 % 1015,1 hPa 0,0 l/m 5,3 km/h (1 Bft) SW 225 0 min 0,0 UV-I 8,4 C 12,5 C 3,7 km/h (1 Bft)
26.10.2009 16:55 12,4 C 10,4 C 11,9 C 12,3 C 12,0 C 0,0 C 77 % 80 % 0 % 1015,1 hPa 0,0 l/m 6,3 km/h (2 Bft) W-SW 247 0 min 0,0 UV-I 8,5 C 12,0 C 13,8 km/h (3 Bft)
26.10.2009 17:00 12,2 C 10,4 C 11,8 C 12,1 C 12,0 C 0,0 C 77 % 80 % 0 % 1015,2 hPa 0,0 l/m 5,5 km/h (1 Bft) SW 225 0 min 0,0 UV-I 8,3 C 12,0 C 17,9 km/h (3 Bft)
26.10.2009 17:05 12,1 C 10,4 C 11,7 C 12,1 C 12,0 C 0,0 C 77 % 80 % 0 % 1015,2 hPa 0,0 l/m 3,9 km/h (1 Bft) SO 135 0 min 0,0 UV-I 8,2 C 12,0 C 3,1 km/h (1 Bft)
26.10.2009 16:13 12,0 C 10,4 C 11,6 C 12,0 C 12,0 C 0,0 C 78 % 81 % 0 % 1015,2 hPa 0,0 l/m 3,4 km/h (1 Bft) SW 225 0 min 0,0 UV-I 8,3 C 12,0 C 6,4 km/h (2 Bft)
26.10.2009 16:20 12,0 C 10,4 C 11,5 C 12,0 C 11,9 C 0,0 C 79 % 82 % 0 % 1015,2 hPa 0,0 l/m 3,9 km/h (1 Bft) S 180 0 min 0,0 UV-I 8,5 C 11,9 C 13,5 km/h (3 Bft)
26.10.2009 16:25 11,9 C 10,4 C 11,5 C 11,9 C 11,8 C 0,0 C 79 % 82 % 0 % 1015,8 hPa 0,0 l/m 4,7 km/h (1 Bft) S 180 0 min 0,0 UV-I 8,4 C 11,8 C 2,1 km/h (1 Bft)
26.10.2009 16:40 11,7 C 10,4 C 11,2 C 11,6 C 11,4 C 0,0 C 80 % 84 % 0 % 1015,6 hPa 0,0 l/m 1,8 km/h (1 Bft) SW 225 0 min 0,0 UV-I 8,4 C 11,4 C 2,6 km/h (1 Bft)
26.10.2009 16:45 11,7 C 10,4 C 11,2 C 11,6 C 11,4 C 0,0 C 80 % 84 % 0 % 1015,6 hPa 0,0 l/m 1,8 km/h (1 Bft) SW 225 0 min 0,0 UV-I 8,4 C 11,4 C 2,6 km/h (1 Bft)
26.10.2009 16:50 11,6 C 10,4 C 11,2 C 11,5 C 11,3 C 0,0 C 80 % 84 % 0 % 1015,6 hPa 0,0 l/m 1,8 km/h (1 Bft) SW 225 0 min 0,0 UV-I 8,3 C 11,3 C 0,0 km/h (0 Bft)
26.10.2009 16:55 11,7 C 10,4 C 11,1 C 11,5 C 11,2 C 0,0 C 81 % 84 % 0 % 1015,6 hPa 0,0 l/m 1,0 km/h (0 Bft) S-SW 202 0 min 0,0 UV-I 8,5 C 11,2 C 0,0 km/h (0 Bft)
26.10.2009 17:00 11,6 C 10,5 C 11,1 C 11,4 C 11,1 C 0,0 C 81 % 84 % 0 % 1015,6 hPa 0,0 l/m 0,8 km/h (0 Bft) S 180 0 min 0,0 UV-I 8,5 C 11,1 C 0,0 km/h (0 Bft)
26.10.2009 17:10 11,5 C 10,4 C 11,1 C 11,3 C 10,9 C 0,0 C 81 % 85 % 0 % 1015,6 hPa 0,0 l/m 0,8 km/h (0 Bft) O-SO 112 0 min 0,0 UV-I 8,4 C 10,9 C 4,7 km/h (1 Bft)
26.10.2009 17:15 11,5 C 10,5 C 10,9 C 11,3 C 10,9 C 0,0 C 81 % 85 % 0 % 1015,6 hPa 0,0 l/m 1,0 km/h (0 Bft) SW 225 0 min 0,0 UV-I 8,4 C 10,9 C 3,4 km/h (1 Bft)
26.10.2009 17:20 11,5 C 10,5 C 10,9 C 11,3 C 10,9 C 0,0 C 82 % 85 % 0 % 1015,6 hPa 0,0 l/m 1,1 km/h (1 Bft) SW 225 0 min 0,0 UV-I 8,5 C 10,9 C 0,0 km/h (0 Bft)
26.10.2009 17:25 11,3 C 10,5 C 10,8 C 11,2 C 10,9 C 0,0 C 82 % 86 % 0 % 1015,8 hPa 0,0 l/m 0,8 km/h (0 Bft) O-SO 112 0 min 0,0 UV-I 8,3 C 10,9 C 0,0 km/h (0 Bft)
26.10.2009 17:30 11,3 C 10,5 C 10,9 C 11,2 C 10,9 C 0,0 C 82 % 86 % 0 % 1015,8 hPa 0,0 l/m 0,3 km/h (0 Bft) SO 135 0 min 0,0 UV-I 8,3 C 10,9 C 1,9 km/h (1 Bft)
26.10.2009 17:35 11,2 C 10,5 C 10,8 C 11,1 C 10,8 C 0,0 C 82 % 86 % 0 % 1015,8 hPa 0,0 l/m 0,2 km/h (0 Bft) S 180 0 min 0,0 UV-I 8,2 C 10,8 C 0,0 km/h (0 Bft)
26.10.2009 17:40 11,2 C 10,5 C 10,8 C 11,1 C 10,8 C 0,0 C 82 % 86 % 0 % 1015,8 hPa 0,0 l/m 0,2 km/h (0 Bft) SW 225 0 min 0,0 UV-I 8,2 C 10,8 C 0,0 km/h (0 Bft)
26.10.2009 17:45 11,3 C 10,5 C 10,7 C 11,1 C 10,7 C 0,0 C 83 % 86 % 0 % 1015,8 hPa 0,0 l/m 0,2 km/h (0 Bft) SO 135 0 min 0,0 UV-I 8,5 C 10,7 C 0,0 km/h (0 Bft)
26.10.2009 17:50 11,2 C 10,5 C 10,7 C 11,0 C 10,7 C 0,0 C 83 % 86 % 0 % 1015,8 hPa 0,0 l/m 0,3 km/h (0 Bft) S-SO 157 0 min 0,0 UV-I 8,4 C 10,7 C 0,0 km/h (0 Bft)
26.10.2009 17:55 11,1 C 10,5 C 10,7 C 10,9 C 10,6 C 0,0 C 83 % 86 % 0 % 1015,8 hPa 0,0 l/m 0,5 km/h (0 Bft) S 180 0 min 0,0 UV-I 8,3 C 10,6 C 0,0 km/h (0 Bft)
26.10.2009 18:00 11,1 C 10,5 C 10,6 C 10,9 C 10,6 C 0,0 C 83 % 86 % 0 % 1015,8 hPa 0,0 l/m 0,5 km/h (0 Bft) S-SO 157 0 min 0,0 UV-I 8,3 C 10,6 C 0,0 km/h (0 Bft)
26.10.2009 18:10 10,9 C 10,5 C 10,4 C 10,6 C 10,0 C 0,0 C 84 % 87 % 0 % 1016,0 hPa 0,0 l/m 0,5 km/h (0 Bft) S 180 0 min 0,0 UV-I 8,3 C 10,0 C 1,8 km/h (1 Bft)
26.10.2009 18:15 10,9 C 10,5 C 10,4 C 10,6 C 10,0 C 0,0 C 84 % 87 % 0 % 1016,0 hPa 0,0 l/m 0,5 km/h (0 Bft) S 180 0 min 0,0 UV-I 8,3 C 10,0 C 3,7 km/h (1 Bft)
26.10.2009 18:20 10,9 C 10,5 C 10,4 C 10,6 C 10,1 C 0,0 C 84 % 87 % 0 % 1016,0 hPa 0,0 l/m 0,5 km/h (0 Bft) SO 135 0 min 0,0 UV-I 8,3 C 10,1 C 0,0 km/h (0 Bft)
26.10.2009 18:25 10,9 C 10,5 C 10,5 C 10,7 C 10,3 C 0,0 C 84 % 87 % 0 % 1016,2 hPa 0,0 l/m 0,5 km/h (0 Bft) S 180 0 min 0,0 UV-I 8,3 C 10,3 C 4,3 km/h (1 Bft)
26.10.2009 18:30 10,9 C 10,5 C 10,5 C 10,7 C 10,4 C 0,0 C 84 % 87 % 0 % 1016,2 hPa 0,0 l/m 0,8 km/h (0 Bft) SW 225 0 min 0,0 UV-I 8,3 C 10,4 C 3,4 km/h (1 Bft)
26.10.2009 18:35 10,9 C 10,5 C 10,5 C 10,8 C 10,6 C 0,0 C 84 % 87 % 0 % 1016,2 hPa 0,0 l/m 1,3 km/h (1 Bft) NW 315 0 min 0,0 UV-I 8,3 C 10,6 C 0,0 km/h (0 Bft)
26.10.2009 18:40 11,0 C 10,5 C 10,6 C 10,9 C 10,7 C 0,0 C 84 % 87 % 0 % 1016,2 hPa 0,0 l/m 1,1 km/h (1 Bft) W 270 0 min 0,0 UV-I 8,4 C 10,7 C 2,1 km/h (1 Bft)
26.10.2009 18:45 11,1 C 10,6 C 10,7 C 11,0 C 10,8 C 0,0 C 84 % 87 % 0 % 1016,2 hPa 0,0 l/m 1,0 km/h (0 Bft) SO 135 0 min 0,0 UV-I 8,5 C 10,8 C 0,0 km/h (0 Bft)
26.10.2009 18:50 10,9 C 10,6 C 10,6 C 10,8 C 10,7 C 0,0 C 85 % 87 % 0 % 1016,2 hPa 0,0 l/m 1,1 km/h (1 Bft) O 90 0 min 0,0 UV-I 8,5 C 10,7 C 2,7 km/h (1 Bft)
26.10.2009 18:55 10,9 C 10,6 C 10,6 C 10,8 C 10,6 C 0,0 C 85 % 88 % 0 % 1016,2 hPa 0,0 l/m 0,6 km/h (0 Bft) W-SW 247 0 min 0,0 UV-I 8,5 C 10,6 C 0,0 km/h (0 Bft)
26.10.2009 19:00 10,9 C 10,5 C 10,5 C 10,8 C 10,6 C 0,0 C 85 % 88 % 0 % 1016,2 hPa 0,0 l/m 0,5 km/h (0 Bft) W-SW 247 0 min 0,0 UV-I 8,5 C 10,6 C 3,5 km/h (1 Bft)
26.10.2009 19:10 10,9 C 10,5 C 10,6 C 10,8 C 10,6 C 0,0 C 85 % 88 % 0 % 1016,8 hPa 0,0 l/m 0,6 km/h (0 Bft) SO 135 0 min 0,0 UV-I 8,5 C 10,6 C 0,0 km/h (0 Bft)
26.10.2009 19:15 10,9 C 10,6 C 10,7 C 10,8 C 10,7 C 0,0 C 85 % 88 % 0 % 1016,8 hPa 0,0 l/m 0,8 km/h (0 Bft) S 180 0 min 0,0 UV-I 8,5 C 10,7 C 3,1 km/h (1 Bft)
26.10.2009 19:20 10,9 C 10,6 C 10,6 C 10,8 C 10,6 C 0,0 C 85 % 88 % 0 % 1016,8 hPa 0,0 l/m 1,3 km/h (1 Bft) W-SW 247 0 min 0,0 UV-I 8,5 C 10,6 C 0,0 km/h (0 Bft)
26.10.2009 19:25 10,9 C 10,6 C 10,6 C 10,8 C 10,6 C 0,0 C 85 % 87 % 0 % 1015,6 hPa 0,0 l/m 0,8 km/h (0 Bft) S-SO 157 0 min 0,0 UV-I 8,5 C 10,6 C 2,4 km/h (1 Bft)
26.10.2009 19:30 10,9 C 10,5 C 10,7 C 10,8 C 10,6 C 0,0 C 85 % 87 % 0 % 1015,6 hPa 0,0 l/m 0,8 km/h (0 Bft) O-SO 112 0 min 0,0 UV-I 8,5 C 10,6 C 2,1 km/h (1 Bft)
26.10.2009 19:35 10,9 C 10,6 C 10,7 C 10,8 C 10,7 C 0,0 C 85 % 87 % 0 % 1015,6 hPa 0,0 l/m 1,1 km/h (1 Bft) O-SO 112 0 min 0,0 UV-I 8,5 C 10,7 C 1,8 km/h (1 Bft)
26.10.2009 19:40 10,9 C 10,5 C 10,7 C 10,9 C 10,8 C 0,0 C 85 % 87 % 0 % 1015,6 hPa 0,0 l/m 0,8 km/h (0 Bft) SO 135 0 min 0,0 UV-I 8,5 C 10,8 C 0,0 km/h (0 Bft)
26.10.2009 19:45 10,9 C 10,5 C 10,7 C 10,9 C 10,8 C 0,0 C 85 % 88 % 0 % 1015,7 hPa 0,0 l/m 1,0 km/h (0 Bft) S 180 0 min 0,0 UV-I 8,5 C 10,8 C 1,6 km/h (1 Bft)
26.10.2009 19:50 10,9 C 10,5 C 10,7 C 10,9 C 10,9 C 0,0 C 85 % 87 % 0 % 1015,7 hPa 0,0 l/m 1,3 km/h (1 Bft) N-NW 337 0 min 0,0 UV-I 8,5 C 10,9 C 0,0 km/h (0 Bft)
26.10.2009 19:55 11,1 C 10,5 C 10,8 C 11,0 C 10,9 C 0,0 C 85 % 87 % 0 % 1015,7 hPa 0,0 l/m 1,1 km/h (1 Bft) S 180 0 min 0,0 UV-I 8,7 C 10,9 C 0,0 km/h (0 Bft)
26.10.2009 20:00 11,0 C 10,5 C 10,8 C 11,0 C 11,0 C 0,0 C 85 % 87 % 0 % 1015,7 hPa 0,0 l/m 1,3 km/h (1 Bft) S 180 0 min 0,0 UV-I 8,6 C 11,0 C 2,4 km/h (1 Bft)
26.10.2009 20:10 11,1 C 10,5 C 10,9 C 11,1 C 11,1 C 0,0 C 84 % 87 % 0 % 1015,9 hPa 0,0 l/m 1,3 km/h (1 Bft) W-SW 247 0 min 0,0 UV-I 8,5 C 11,1 C 6,3 km/h (2 Bft)
26.10.2009 20:15 11,1 C 10,5 C 10,8 C 11,2 C 11,2 C 0,1 C 84 % 87 % 0 % 1015,9 hPa 0,0 l/m 1,6 km/h (1 Bft) SO 135 0 min 0,0 UV-I 8,5 C 11,2 C 1,6 km/h (1 Bft)
26.10.2009 20:20 11,1 C 10,5 C 10,8 C 11,2 C 11,2 C 0,1 C 84 % 86 % 0 % 1015,9 hPa 0,0 l/m 1,8 km/h (1 Bft) SO 135 0 min 0,0 UV-I 8,5 C 11,2 C 2,3 km/h (1 Bft)
26.10.2009 20:25 11,1 C 10,5 C 10,8 C 11,2 C 11,2 C 0,1 C 84 % 86 % 0 % 1015,8 hPa 0,0 l/m 1,9 km/h (1 Bft) W-SW 247 0 min 0,0 UV-I 8,5 C 11,2 C 9,8 km/h (2 Bft)
26.10.2009 20:30 11,0 C 10,5 C 10,9 C 11,2 C 11,2 C 0,2 C 84 % 86 % 0 % 1015,8 hPa 0,0 l/m 2,6 km/h (1 Bft) W-SW 247 0 min 0,0 UV-I 8,4 C 11,2 C 3,4 km/h (1 Bft)
26.10.2009 20:35 11,1 C 10,5 C 10,9 C 11,3 C 11,3 C 0,2 C 84 % 86 % 0 % 1015,8 hPa 0,0 l/m 3,5 km/h (1 Bft) S 180 0 min 0,0 UV-I 8,5 C 11,3 C 8,9 km/h (2 Bft)
26.10.2009 20:40 11,1 C 10,5 C 10,9 C 11,4 C 11,4 C 0,3 C 83 % 86 % 0 % 1015,8 hPa 0,0 l/m 4,0 km/h (1 Bft) W-SW 247 0 min 0,0 UV-I 8,3 C 11,4 C 3,9 km/h (1 Bft)
26.10.2009 20:45 11,1 C 10,5 C 10,9 C 11,4 C 11,4 C 0,3 C 83 % 85 % 0 % 1015,8 hPa 0,0 l/m 4,3 km/h (1 Bft) W-SW 247 0 min 0,0 UV-I 8,3 C 11,4 C 8,7 km/h (2 Bft)
26.10.2009 20:50 11,1 C 10,5 C 11,0 C 11,4 C 11,4 C 0,3 C 83 % 86 % 0 % 1015,8 hPa 0,0 l/m 4,5 km/h (1 Bft) SW 225 0 min 0,0 UV-I 8,3 C 11,4 C 9,2 km/h (2 Bft)
26.10.2009 20:55 11,2 C 10,5 C 11,0 C 11,4 C 11,4 C 0,2 C 83 % 85 % 0 % 1015,8 hPa 0,0 l/m 4,8 km/h (1 Bft) S-SW 202 0 min 0,0 UV-I 8,4 C 11,4 C 2,7 km/h (1 Bft)
26.10.2009 21:00 11,1 C 10,5 C 10,9 C 11,4 C 11,4 C 0,3 C 83 % 86 % 0 % 1015,8 hPa 0,0 l/m 4,5 km/h (1 Bft) SW 225 0 min 0,0 UV-I 8,3 C 11,4 C 4,8 km/h (1 Bft)
26.10.2009 21:10 11,1 C 10,5 C 10,9 C 11,4 C 11,4 C 0,3 C 83 % 86 % 0 % 1016,1 hPa 0,0 l/m 4,5 km/h (1 Bft) S 180 0 min 0,0 UV-I 8,3 C 11,4 C 5,5 km/h (1 Bft)
26.10.2009 21:15 11,1 C 10,5 C 10,9 C 11,4 C 11,4 C 0,3 C 83 % 86 % 0 % 1016,1 hPa 0,0 l/m 4,7 km/h (1 Bft) S 180 0 min 0,0 UV-I 8,3 C 11,4 C 7,2 km/h (2 Bft)
26.10.2009 21:20 11,1 C 10,5 C 10,9 C 11,2 C 11,2 C 0,1 C 83 % 86 % 0 % 1016,1 hPa 0,0 l/m 5,3 km/h (1 Bft) S-SW 202 0 min 0,0 UV-I 8,3 C 11,2 C 10,1 km/h (2 Bft)
26.10.2009 21:25 11,0 C 10,5 C 10,9 C 11,4 C 11,4 C 0,4 C 83 % 86 % 0 % 1016,5 hPa 0,0 l/m 4,8 km/h (1 Bft) W-SW 247 0 min 0,0 UV-I 8,2 C 11,4 C 5,1 km/h (1 Bft)
26.10.2009 21:30 11,1 C 10,5 C 10,9 C 11,3 C 11,3 C 0,2 C 83 % 86 % 0 % 1016,5 hPa 0,0 l/m 4,7 km/h (1 Bft) S 180 0 min 0,0 UV-I 8,3 C 11,3 C 3,4 km/h (1 Bft)
26.10.2009 21:35 11,1 C 10,5 C 10,8 C 11,2 C 11,2 C 0,1 C 83 % 86 % 0 % 1016,5 hPa 0,0 l/m 4,2 km/h (1 Bft) SO 135 0 min 0,0 UV-I 8,3 C 11,2 C 5,1 km/h (1 Bft)
26.10.2009 21:40 11,1 C 10,5 C 10,8 C 11,2 C 11,2 C 0,1 C 84 % 86 % 0 % 1016,5 hPa 0,0 l/m 4,0 km/h (1 Bft) SW 225 0 min 0,0 UV-I 8,5 C 11,2 C 8,7 km/h (2 Bft)
26.10.2009 21:45 11,1 C 10,7 C 10,8 C 11,0 C 10,9 C 0,0 C 84 % 86 % 0 % 1016,4 hPa 0,0 l/m 4,8 km/h (1 Bft) S-SW 202 0 min 0,0 UV-I 8,5 C 10,9 C 10,0 km/h (2 Bft)
26.10.2009 21:50 10,9 C 10,8 C 10,7 C 10,8 C 10,7 C 0,0 C 85 % 87 % 0 % 1016,4 hPa 0,7 l/m 4,7 km/h (1 Bft) SW 225 0 min 0,0 UV-I 8,5 C 10,7 C 6,4 km/h (2 Bft)
26.10.2009 21:55 10,8 C 10,8 C 10,7 C 10,7 C 10,4 C 0,0 C 86 % 88 % 0 % 1016,4 hPa 0,0 l/m 3,2 km/h (1 Bft) S 180 0 min 0,0 UV-I 8,6 C 10,4 C 4,0 km/h (1 Bft)
26.10.2009 22:00 10,8 C 10,8 C 10,5 C 10,6 C 10,3 C 0,0 C 86 % 89 % 0 % 1016,4 hPa 0,0 l/m 2,7 km/h (1 Bft) S-SO 157 0 min 0,0 UV-I 8,6 C 10,3 C 2,6 km/h (1 Bft)
26.10.2009 22:10 10,7 C 10,8 C 10,5 C 10,5 C 10,2 C 0,0 C 86 % 89 % 0 % 1016,5 hPa 0,0 l/m 3,5 km/h (1 Bft) NW 315 0 min 0,0 UV-I 8,5 C 10,2 C 4,5 km/h (1 Bft)
26.10.2009 22:15 10,7 C 10,8 C 10,5 C 10,5 C 10,2 C 0,0 C 87 % 89 % 0 % 1016,5 hPa 0,0 l/m 3,7 km/h (1 Bft) W-SW 247 0 min 0,0 UV-I 8,6 C 10,2 C 4,2 km/h (1 Bft)
26.10.2009 22:20 10,7 C 10,8 C 10,4 C 10,5 C 10,1 C 0,0 C 87 % 90 % 0 % 1016,5 hPa 0,0 l/m 3,2 km/h (1 Bft) SW 225 0 min 0,0 UV-I 8,6 C 10,1 C 1,9 km/h (1 Bft)
26.10.2009 22:25 10,7 C 10,9 C 10,3 C 10,5 C 10,1 C 0,0 C 87 % 90 % 0 % 1016,6 hPa 0,0 l/m 3,4 km/h (1 Bft) S 180 0 min 0,0 UV-I 8,6 C 10,1 C 1,9 km/h (1 Bft)
26.10.2009 22:30 10,7 C 10,9 C 10,3 C 10,5 C 10,1 C 0,0 C 87 % 90 % 0 % 1016,6 hPa 0,0 l/m 2,9 km/h (1 Bft) W 270 0 min 0,0 UV-I 8,6 C 10,1 C 0,0 km/h (0 Bft)
26.10.2009 22:35 10,5 C 10,9 C 10,2 C 10,3 C 10,0 C 0,0 C 88 % 90 % 0 % 1016,6 hPa 0,0 l/m 2,4 km/h (1 Bft) S 180 0 min 0,0 UV-I 8,6 C 10,0 C 2,9 km/h (1 Bft)
26.10.2009 22:40 10,5 C 10,9 C 10,2 C 10,3 C 10,0 C 0,0 C 88 % 91 % 0 % 1016,6 hPa 0,0 l/m 2,6 km/h (1 Bft) SW 225 0 min 0,0 UV-I 8,6 C 10,0 C 10,6 km/h (2 Bft)
26.10.2009 22:45 10,5 C 10,8 C 10,3 C 10,3 C 10,0 C 0,0 C 88 % 91 % 0 % 1016,6 hPa 0,0 l/m 2,3 km/h (1 Bft) S 180 0 min 0,0 UV-I 8,6 C 10,0 C 2,6 km/h (1 Bft)
26.10.2009 22:50 10,5 C 10,8 C 10,2 C 10,3 C 10,0 C 0,0 C 88 % 90 % 0 % 1016,6 hPa 0,0 l/m 1,9 km/h (1 Bft) SO 135 0 min 0,0 UV-I 8,6 C 10,0 C 3,4 km/h (1 Bft)
26.10.2009 22:55 10,5 C 10,8 C 10,3 C 10,3 C 10,0 C 0,0 C 88 % 91 % 0 % 1016,6 hPa 0,0 l/m 1,6 km/h (1 Bft) W-SW 247 0 min 0,0 UV-I 8,6 C 10,0 C 3,7 km/h (1 Bft)
26.10.2009 23:00 10,5 C 10,8 C 10,2 C 10,3 C 10,0 C 0,0 C 88 % 91 % 0 % 1016,6 hPa 0,0 l/m 1,8 km/h (1 Bft) N-NW 337 0 min 0,0 UV-I 8,6 C 10,0 C 5,0 km/h (1 Bft)
26.10.2009 23:10 10,5 C 10,8 C 10,3 C 10,3 C 10,0 C 0,0 C 88 % 91 % 0 % 1016,5 hPa 0,0 l/m 2,1 km/h (1 Bft) W-SW 247 0 min 0,0 UV-I 8,6 C 10,0 C 8,7 km/h (2 Bft)
26.10.2009 23:15 10,4 C 10,9 C 10,3 C 10,3 C 10,0 C 0,0 C 88 % 91 % 0 % 1016,5 hPa 0,0 l/m 3,4 km/h (1 Bft) W-SW 247 0 min 0,0 UV-I 8,5 C 10,0 C 1,9 km/h (1 Bft)
26.10.2009 23:20 10,4 C 11,0 C 10,1 C 10,3 C 10,0 C 0,0 C 88 % 91 % 0 % 1016,5 hPa 0,0 l/m 3,7 km/h (1 Bft) SW 225 0 min 0,0 UV-I 8,5 C 10,0 C 4,5 km/h (1 Bft)
26.10.2009 23:25 10,4 C 10,9 C 10,1 C 10,2 C 9,9 C 0,0 C 88 % 91 % 0 % 1016,6 hPa 0,0 l/m 2,9 km/h (1 Bft) S 180 0 min 0,0 UV-I 8,5 C 9,9 C 3,4 km/h (1 Bft)
26.10.2009 23:30 10,3 C 10,9 C 10,0 C 10,2 C 10,0 C 0,0 C 89 % 92 % 0 % 1016,6 hPa 0,0 l/m 2,7 km/h (1 Bft) W-SW 247 0 min 0,0 UV-I 8,6 C 10,0 C 4,3 km/h (1 Bft)
26.10.2009 23:35 10,3 C 11,0 C 10,0 C 10,2 C 10,0 C 0,0 C 89 % 92 % 0 % 1016,6 hPa 0,0 l/m 2,9 km/h (1 Bft) SW 225 0 min 0,0 UV-I 8,6 C 10,0 C 1,9 km/h (1 Bft)
26.10.2009 23:40 10,3 C 11,0 C 10,0 C 10,2 C 10,0 C 0,0 C 89 % 92 % 0 % 1016,6 hPa 0,0 l/m 3,4 km/h (1 Bft) SW 225 0 min 0,0 UV-I 8,6 C 10,0 C 7,4 km/h (2 Bft)
26.10.2009 23:45 10,3 C 11,0 C 10,0 C 10,2 C 10,0 C 0,0 C 89 % 92 % 0 % 1016,9 hPa 0,0 l/m 2,7 km/h (1 Bft) S-SW 202 0 min 0,0 UV-I 8,6 C 10,0 C 2,6 km/h (1 Bft)
26.10.2009 23:50 10,3 C 11,0 C 9,9 C 10,2 C 10,0 C 0,0 C 90 % 93 % 0 % 1016,9 hPa 0,0 l/m 2,6 km/h (1 Bft) SW 225 0 min 0,0 UV-I 8,7 C 10,0 C 3,2 km/h (1 Bft)
26.10.2009 23:55 10,3 C 11,0 C 9,9 C 10,2 C 9,9 C 0,0 C 90 % 93 % 0 % 1016,9 hPa 0,0 l/m 2,4 km/h (1 Bft) SW 225 0 min 0,0 UV-I 8,7 C 9,9 C 6,9 km/h (2 Bft)
_ Min-Zeit 02:40 10:25 02:45 02:45 02:45 00:00 14:10 13:55 00:00 06:20 - 00:00 - - - 00:00 02:40 02:45 00:00
Minimum _ 7,4 C 9,8 C 6,6 C 6,9 C 6,0 C 0,0 C 73 % 74 % 0 % 1014,9 hPa - 0,0 km/h (0 Bft) - - - 0,0 UV-I 6,3 C 6,0 C 0,0 km/h (0 Bft)
_ Max-Zeit 13:35 23:20 13:55 11:35 11:35 11:35 04:30 00:20 11:20 23:45 21:50 16:15 - - 11:15 11:15 11:45 11:35 12:30
Maximum _ 13,7 C 11,0 C 13,9 C 16,7 C 16,7 C 4,6 C 94 % 97 % 100 % 1016,9 hPa 0,7 l/m 10,3 km/h
W-SW (2 Bft)
- - 5 min 0,5 UV-I 9,6 C 16,7 C 23,2 km/h
W (4 Bft)
Durchschnitt _ 10,5 C 10,3 C 10,1 C 10,8 C 10,6 C 0,5 C 85 % 89 % 11 % 1015,7 hPa #0,7 l/m 2,5 km/h (1 Bft) SW - #35 min. 0,3 UV-I 8,1 C 10,6 C 4,3 km/h (1 Bft)
2013 www.wetterstation-wechselburg.de